To NAV CANADA Home Page Login to a new session Search on AWWS site Feedback and Comments Disclaimer Vers la page française équivalente Tips FAQ What's new on the site To the Forecasts and Observations / NOTAM section To "File a Flight Plan" website Publications and other links Update of the User's profile FIC Telephone Numbers My Weather Data Folder Route Weather Data Regional Weather Data Local Weather Data To the Forecasts and Observations / NOTAM section
Request Generated 08/22/2017 at 03:26:39 UTC . Weather information available at that time is displayed.

METAR/TAF

KINGSTON/ON    

METAR CYGK 220300Z 24004KT 15SM SCT250 22/21 A3000 RMK CI4 LAST STFD
OBS/NEXT 221015Z SLP160 DENSITY ALT 1100FT=
METAR CYGK 220200Z 20004KT 15SM BKN250 22/20 A3002 RMK CI5 SLP168
DENSITY ALT 1100FT=
METAR CYGK 220100Z 21005KT 15SM SCT250 22/20 A3000 RMK CI4 SLP161
DENSITY ALT 1100FT=

*** REMARK        : Forecast period has ended; this was the last TAF issued
*** REMARQUE : La période de prévision est échue; ceci était le dernier TAF qui a été émis
TAF CYGK 211938Z 2120/2203 19010KT P6SM SCT250
RMK NXT FCST WILL BE ISSUED AT 221145Z=
Your time UTC time
Weather data provided by Environment Canada and NAV CANADA